Location: Austin
(30.3000°N, 97.7500°W)
Time: 10:42:58
(UTC-05:00)

SL-16 Debris - Pass Details

Date: 26 May 2023
Orbit: 269 x 11125 km, 28.5° (Epoch: 03 June)

Event Time Altitude Azimuth Distance (km) Brightness Sun altitude
Rises 21:32:11 0° 272° (W) 4,356 9.2 -13.4°
Reaches altitude 10° 21:36:28 10° 269° (W) 2,346 7.6 -14.2°
Maximum altitude 21:40:53 55° 191° (S) 484 3.1 -14.9°
Enters shadow 21:41:34 39° 135° (SE) 560 3.2 -15.1°
